FENGYUN 1C DEB, 30594

Orbit data source: Space-Track

FENGYUN 1C DEB, 30594 is space debris in SSO originally from a launch on Mon, 10 May 1999 UTC launched from the Taiyaun Space Center, China (TSC). Fengyun 1C debris stems from the Chinese weather satellite Fengyun-1C, which was intentionally destroyed by a Chinese anti-satellite missile in 2007. This event dramatically increased the amount of space debris, with thousands of trackable fragments posing hazards to satellites and human spaceflight. The Fengyun 1C debris cloud has become a focal point in discussions about space sustainability and the need for international regulations to prevent the creation of new debris.

Loading next visibility...
Identifier
30594, 1999-025ALZ
Orbit
SSO
Country
Flag of CNCN / PRC
Related business
Manufacturer
Unknown
Mission
Spacecraft
Bus & Motor
Unknown
Mass
Unknown
Launch date (UTC)
1999-05-10 (27 years ago)
Launch vehicle
Unknown
Launch site
Taiyaun Space Center, China (TSC)
Object type
Payload
Rocket body
Debris
Shape & HBR
Unknown shape, 0.1 m
Radar Cross Section
Medium (>0.1 m² and <1 m²)

Expand to show TLE details & history
Last TLE update: 6 hours ago

TLE from 6 hours ago
0 FENGYUN 1C DEB
1 30594U 99025ALZ 26238.60780288  .00000210  00000-0  10675-3 0  9991
2 30594  99.1187 107.1542 0192825 308.4224  49.9774 14.17523924 11525
Epoch: 2026-08-26T14:35Z
TLE epoch observation values (Epoch: 2026-08-26T14:35:14.168Z)
Latitude
-0.00006°
Longitude
-86.51319°
Altitude
748.793 km
Speed
7.526 km/s
True Right ascension
07h 08m 37s
True Declination
0° 00' 00"
Sunlit
Object was in daylight at epoch
Visualization orbit readout
Latitude
Unknown
Longitude
Unknown
Altitude
Unknown
Speed
Unknown
Apparent Right ascension
Unknown
Apparent Declination
Unknown
Sunlit
N/A
Visualization observer readout
Local Sidereal Time
12:00:30
Azimuth
Unknown
Elevation
Unknown
Doppler factor
Unknown
Orbital elements
Apogee altitude
969.928 km
Perigee altitude
691.911 km
Semi-major axis
7,209.056 km
Eccentricity
0.01928
Inclination
99.1187°
RAAN
107.1542°
Arg. of periapsis
308.4224°
True anomaly
51.69587°
Mean anomaly
49.9774°
Eccentric anomaly
50.83398°
Mean motion
3.54589 °/min
Orbital period
101.53 mins
BSTAR
0.00010675
Loading maneuver chart data...
Computing Atmospheric mass density...
Loading historical data...
Loading historical data...
Loading historical data...
Loading historical data...
Loading historical data...
Loading historical data...
Loading historical data...

Documentation

Showing up to 5 results
|